Year,Month,Day,Hour,Minute,Value (Times are PST for windgust in km/hr)
2012,01,19,00,00,4.80
2012,01,19,00,01,11.30
2012,01,19,00,02,9.60
2012,01,19,00,03,6.40
2012,01,19,00,04,6.40
2012,01,19,00,05,6.40
2012,01,19,00,06,8.10
2012,01,19,00,07,9.60
2012,01,19,00,08,3.20
2012,01,19,00,09,6.40
2012,01,19,00,10,11.30
2012,01,19,00,11,9.60
2012,01,19,00,12,9.60
2012,01,19,00,13,6.40
2012,01,19,00,14,9.60
2012,01,19,00,15,8.10
2012,01,19,00,16,11.30
2012,01,19,00,17,11.30
2012,01,19,00,18,9.60
2012,01,19,00,19,6.40
2012,01,19,00,20,8.10
2012,01,19,00,21,9.60
2012,01,19,00,22,8.10
2012,01,19,00,23,4.80
2012,01,19,00,24,8.10
2012,01,19,00,25,11.30
2012,01,19,00,26,9.60
2012,01,19,00,27,4.80
2012,01,19,00,28,6.40
2012,01,19,00,29,11.30
2012,01,19,00,30,8.10
2012,01,19,00,31,8.10
2012,01,19,00,32,9.60
2012,01,19,00,33,9.60
2012,01,19,00,34,8.10
2012,01,19,00,35,8.10
2012,01,19,00,36,6.40
2012,01,19,00,37,8.10
2012,01,19,00,38,9.60
2012,01,19,00,39,8.10
2012,01,19,00,40,8.10
2012,01,19,00,41,8.10
2012,01,19,00,42,9.60
2012,01,19,00,43,8.10
2012,01,19,00,44,8.10
2012,01,19,00,45,6.40
2012,01,19,00,46,6.40
2012,01,19,00,47,3.20
2012,01,19,00,48,11.30
2012,01,19,00,49,6.40
2012,01,19,00,50,8.10
2012,01,19,00,51,8.10
2012,01,19,00,52,6.40
2012,01,19,00,53,4.80
2012,01,19,00,54,4.80
2012,01,19,00,55,1.60
2012,01,19,00,56,6.40
2012,01,19,00,57,3.20
2012,01,19,00,58,4.80
2012,01,19,00,59,4.80
2012,01,19,01,00,6.40
2012,01,19,01,01,9.60
2012,01,19,01,02,4.80
2012,01,19,01,03,6.40
2012,01,19,01,04,6.40
2012,01,19,01,05,11.30
2012,01,19,01,06,8.10
2012,01,19,01,07,4.80
2012,01,19,01,08,6.40
2012,01,19,01,09,8.10
2012,01,19,01,10,8.10
2012,01,19,01,11,6.40
2012,01,19,01,12,6.40
2012,01,19,01,13,6.40
2012,01,19,01,14,4.80
2012,01,19,01,15,9.60
2012,01,19,01,16,4.80
2012,01,19,01,17,8.10
2012,01,19,01,18,6.40
2012,01,19,01,19,8.10
2012,01,19,01,20,6.40
2012,01,19,01,21,4.80
2012,01,19,01,22,4.80
2012,01,19,01,23,9.60
2012,01,19,01,24,8.10
2012,01,19,01,25,6.40
2012,01,19,01,26,4.80
2012,01,19,01,27,6.40
2012,01,19,01,28,4.80
2012,01,19,01,29,3.20
2012,01,19,01,30,9.60
2012,01,19,01,31,9.60
2012,01,19,01,32,6.40
2012,01,19,01,33,6.40
2012,01,19,01,34,9.60
2012,01,19,01,35,8.10
2012,01,19,01,36,8.10
2012,01,19,01,37,9.60
2012,01,19,01,38,12.90
2012,01,19,01,39,11.30
2012,01,19,01,40,9.60
2012,01,19,01,41,9.60
2012,01,19,01,42,8.10
2012,01,19,01,43,8.10
2012,01,19,01,44,12.90
2012,01,19,01,45,8.10
2012,01,19,01,46,4.80
2012,01,19,01,47,8.10
2012,01,19,01,48,6.40
2012,01,19,01,49,9.60
2012,01,19,01,50,17.70
2012,01,19,01,51,8.10
2012,01,19,01,52,8.10
2012,01,19,01,53,8.10
2012,01,19,01,54,4.80
2012,01,19,01,55,4.80
2012,01,19,01,56,8.10
2012,01,19,01,57,4.80
2012,01,19,01,58,6.40
2012,01,19,01,59,4.80
2012,01,19,02,00,8.10
2012,01,19,02,01,9.60
2012,01,19,02,02,4.80
2012,01,19,02,03,6.40
2012,01,19,02,04,8.10
2012,01,19,02,05,9.60
2012,01,19,02,06,6.40
2012,01,19,02,07,9.60
2012,01,19,02,08,6.40
2012,01,19,02,09,8.10
2012,01,19,02,10,8.10
2012,01,19,02,11,8.10
2012,01,19,02,12,11.30
2012,01,19,02,13,8.10
2012,01,19,02,14,8.10
2012,01,19,02,15,11.30
2012,01,19,02,16,11.30
2012,01,19,02,17,11.30
2012,01,19,02,18,8.10
2012,01,19,02,19,9.60
2012,01,19,02,20,8.10
2012,01,19,02,21,9.60
2012,01,19,02,22,8.10
2012,01,19,02,23,12.90
2012,01,19,02,24,9.60
2012,01,19,02,25,9.60
2012,01,19,02,26,4.80
2012,01,19,02,27,9.60
2012,01,19,02,28,9.60
2012,01,19,02,29,8.10
2012,01,19,02,30,9.60
2012,01,19,02,31,8.10
2012,01,19,02,32,6.40
2012,01,19,02,33,8.10
2012,01,19,02,34,8.10
2012,01,19,02,35,1.60
2012,01,19,02,36,1.60
2012,01,19,02,37,8.10
2012,01,19,02,38,8.10
2012,01,19,02,39,8.10
2012,01,19,02,40,8.10
2012,01,19,02,41,6.40
2012,01,19,02,42,8.10
2012,01,19,02,43,11.30
2012,01,19,02,44,8.10
2012,01,19,02,45,8.10
2012,01,19,02,46,1.60
2012,01,19,02,47,12.90
2012,01,19,02,48,6.40
2012,01,19,02,49,3.20
2012,01,19,02,50,6.40
2012,01,19,02,51,3.20
2012,01,19,02,52,6.40
2012,01,19,02,53,3.20
2012,01,19,02,54,1.60
2012,01,19,02,55,6.40
2012,01,19,02,56,1.60
2012,01,19,02,58,9.60
2012,01,19,02,59,8.10
2012,01,19,03,00,4.80
2012,01,19,03,01,1.60
2012,01,19,03,02,1.60
2012,01,19,03,06,1.60
2012,01,19,03,07,1.60
2012,01,19,03,08,3.20
2012,01,19,03,09,1.60
2012,01,19,03,10,6.40
2012,01,19,03,11,6.40
2012,01,19,03,12,4.80
2012,01,19,03,13,8.10
2012,01,19,03,14,6.40
2012,01,19,03,15,8.10
2012,01,19,03,16,6.40
2012,01,19,03,17,3.20
2012,01,19,03,18,6.40
2012,01,19,03,19,3.20
2012,01,19,03,20,6.40
2012,01,19,03,21,6.40
2012,01,19,03,22,1.60
2012,01,19,03,23,1.60
2012,01,19,03,24,3.20
2012,01,19,03,25,1.60
2012,01,19,03,26,6.40
2012,01,19,03,27,3.20
2012,01,19,03,28,3.20
2012,01,19,03,29,8.10
2012,01,19,03,30,8.10
2012,01,19,03,31,8.10
2012,01,19,03,32,3.20
2012,01,19,03,33,3.20
2012,01,19,03,34,3.20
2012,01,19,03,35,3.20
2012,01,19,03,36,1.60
2012,01,19,03,37,3.20
2012,01,19,03,38,6.40
2012,01,19,03,39,1.60
2012,01,19,03,40,3.20
2012,01,19,03,41,1.60
2012,01,19,03,42,1.60
2012,01,19,03,44,1.60
2012,01,19,03,45,1.60
2012,01,19,03,46,3.20
2012,01,19,03,47,3.20
2012,01,19,03,48,6.40
2012,01,19,03,49,3.20
2012,01,19,03,50,8.10
2012,01,19,03,51,8.10
2012,01,19,03,52,8.10
2012,01,19,03,53,6.40
2012,01,19,03,54,8.10
2012,01,19,03,55,8.10
2012,01,19,03,56,8.10
2012,01,19,03,57,6.40
2012,01,19,03,58,3.20
2012,01,19,03,59,3.20
2012,01,19,04,00,3.20
2012,01,19,04,01,3.20
2012,01,19,04,02,1.60
2012,01,19,04,03,3.20
2012,01,19,04,04,3.20
2012,01,19,04,05,3.20
2012,01,19,04,06,3.20
2012,01,19,04,07,1.60
2012,01,19,04,08,3.20
2012,01,19,04,09,3.20
2012,01,19,04,10,4.80
2012,01,19,04,11,3.20
2012,01,19,04,12,8.10
2012,01,19,04,13,4.80
2012,01,19,04,14,3.20
2012,01,19,04,15,3.20
2012,01,19,04,16,3.20
2012,01,19,04,17,1.60
2012,01,19,04,18,3.20
2012,01,19,04,19,4.80
2012,01,19,04,20,3.20
2012,01,19,04,22,3.20
2012,01,19,04,23,3.20
2012,01,19,04,26,3.20
2012,01,19,04,27,3.20
2012,01,19,04,28,1.60
2012,01,19,04,31,1.60
2012,01,19,04,32,3.20
2012,01,19,04,34,1.60
2012,01,19,04,39,1.60
2012,01,19,04,41,1.60
2012,01,19,04,42,3.20
2012,01,19,04,43,1.60
2012,01,19,04,44,1.60
2012,01,19,04,45,1.60
2012,01,19,04,46,1.60
2012,01,19,04,54,1.60
2012,01,19,04,55,1.60
2012,01,19,04,57,3.20
2012,01,19,05,00,1.60
2012,01,19,05,01,1.60
2012,01,19,05,02,1.60
2012,01,19,05,03,3.20
2012,01,19,05,04,3.20
2012,01,19,05,05,3.20
2012,01,19,05,06,1.60
2012,01,19,05,07,3.20
2012,01,19,05,08,6.40
2012,01,19,05,09,3.20
2012,01,19,05,10,3.20
2012,01,19,05,11,6.40
2012,01,19,05,12,1.60
2012,01,19,05,13,3.20
2012,01,19,05,14,6.40
2012,01,19,05,15,1.60
2012,01,19,05,16,8.10
2012,01,19,05,17,3.20
2012,01,19,05,18,3.20
2012,01,19,05,19,1.60
2012,01,19,05,20,3.20
2012,01,19,05,21,3.20
2012,01,19,05,22,1.60
2012,01,19,05,24,6.40
2012,01,19,05,25,8.10
2012,01,19,05,26,1.60
2012,01,19,05,27,1.60
2012,01,19,05,29,1.60
2012,01,19,05,30,3.20
2012,01,19,05,31,1.60
2012,01,19,05,32,1.60
2012,01,19,05,33,1.60
2012,01,19,05,35,1.60
2012,01,19,05,37,3.20
2012,01,19,05,38,3.20
2012,01,19,05,39,3.20
2012,01,19,05,42,1.60
2012,01,19,05,43,6.40
2012,01,19,05,44,6.40
2012,01,19,05,45,4.80
2012,01,19,05,46,6.40
2012,01,19,05,47,4.80
2012,01,19,05,48,4.80
2012,01,19,05,49,8.10
2012,01,19,05,50,4.80
2012,01,19,05,51,6.40
2012,01,19,05,52,1.60
2012,01,19,05,53,3.20
2012,01,19,05,54,3.20
2012,01,19,05,56,1.60
2012,01,19,05,57,3.20
2012,01,19,05,58,3.20
2012,01,19,05,59,3.20
2012,01,19,06,00,4.80
2012,01,19,06,01,6.40
2012,01,19,06,02,6.40
2012,01,19,06,03,4.80
2012,01,19,06,04,4.80
2012,01,19,06,05,6.40
2012,01,19,06,06,6.40
2012,01,19,06,07,9.60
2012,01,19,06,08,8.10
2012,01,19,06,09,4.80
2012,01,19,06,10,6.40
2012,01,19,06,11,4.80
2012,01,19,06,12,4.80
2012,01,19,06,13,6.40
2012,01,19,06,14,8.10
2012,01,19,06,15,8.10
2012,01,19,06,16,4.80
2012,01,19,06,17,3.20
2012,01,19,06,18,1.60
2012,01,19,06,20,1.60
2012,01,19,06,22,3.20
2012,01,19,06,23,3.20
2012,01,19,06,24,3.20
2012,01,19,06,25,4.80
2012,01,19,06,26,4.80
2012,01,19,06,27,3.20
2012,01,19,06,28,8.10
2012,01,19,06,29,4.80
2012,01,19,06,30,1.60
2012,01,19,06,33,4.80
2012,01,19,06,34,1.60
2012,01,19,06,35,8.10
2012,01,19,06,36,4.80
2012,01,19,06,37,1.60
2012,01,19,06,38,3.20
2012,01,19,06,39,3.20
2012,01,19,06,40,4.80
2012,01,19,06,41,3.20
2012,01,19,06,42,4.80
2012,01,19,06,43,3.20
2012,01,19,06,44,4.80
2012,01,19,06,45,3.20
2012,01,19,06,47,3.20
2012,01,19,06,48,3.20
2012,01,19,06,50,3.20
2012,01,19,06,51,1.60
2012,01,19,06,52,1.60
2012,01,19,06,53,4.80
2012,01,19,06,54,1.60
2012,01,19,06,55,1.60
2012,01,19,06,56,3.20
2012,01,19,06,57,1.60
2012,01,19,06,58,1.60
2012,01,19,06,59,1.60
2012,01,19,07,00,1.60
2012,01,19,07,02,1.60
2012,01,19,07,03,3.20
2012,01,19,07,04,1.60
2012,01,19,07,05,1.60
2012,01,19,07,08,4.80
2012,01,19,07,11,3.20
2012,01,19,07,12,1.60
2012,01,19,07,13,4.80
2012,01,19,07,14,3.20
2012,01,19,07,15,3.20
2012,01,19,07,16,1.60
2012,01,19,07,17,3.20
2012,01,19,07,18,1.60
2012,01,19,07,19,3.20
2012,01,19,07,20,3.20
2012,01,19,07,21,1.60
2012,01,19,07,22,3.20
2012,01,19,07,23,3.20
2012,01,19,07,24,3.20
2012,01,19,07,25,3.20
2012,01,19,07,27,1.60
2012,01,19,07,33,1.60
2012,01,19,07,34,3.20
2012,01,19,07,35,3.20
2012,01,19,07,36,4.80
2012,01,19,07,37,4.80
2012,01,19,07,38,1.60
2012,01,19,07,39,3.20
2012,01,19,07,40,3.20
2012,01,19,07,41,8.10
2012,01,19,07,42,4.80
2012,01,19,07,43,1.60
2012,01,19,07,44,3.20
2012,01,19,07,45,1.60
2012,01,19,07,46,1.60
2012,01,19,07,47,3.20
2012,01,19,07,48,3.20
2012,01,19,07,49,1.60
2012,01,19,07,50,3.20
2012,01,19,07,51,3.20
2012,01,19,07,53,1.60
2012,01,19,07,54,4.80
2012,01,19,07,55,3.20
2012,01,19,07,56,3.20
2012,01,19,07,57,1.60
2012,01,19,07,58,1.60
2012,01,19,07,59,6.40
2012,01,19,08,00,8.10
2012,01,19,08,01,6.40
2012,01,19,08,02,4.80
2012,01,19,08,03,3.20
2012,01,19,08,04,4.80
2012,01,19,08,05,3.20
2012,01,19,08,06,1.60
2012,01,19,08,07,3.20
2012,01,19,08,08,3.20
2012,01,19,08,09,1.60
2012,01,19,08,10,1.60
2012,01,19,08,11,1.60
2012,01,19,08,13,3.20
2012,01,19,08,14,3.20
2012,01,19,08,15,4.80
2012,01,19,08,16,1.60
2012,01,19,08,17,1.60
2012,01,19,08,18,6.40
2012,01,19,08,19,4.80
2012,01,19,08,20,11.30
2012,01,19,08,21,6.40
2012,01,19,08,22,6.40
2012,01,19,08,23,6.40
2012,01,19,08,24,6.40
2012,01,19,08,25,1.60
2012,01,19,08,26,4.80
2012,01,19,08,27,3.20
2012,01,19,08,28,1.60
2012,01,19,08,29,1.60
2012,01,19,08,30,1.60
2012,01,19,08,31,4.80
2012,01,19,08,32,6.40
2012,01,19,08,33,1.60
2012,01,19,08,34,1.60
2012,01,19,08,35,1.60
2012,01,19,08,36,1.60
2012,01,19,08,37,4.80
2012,01,19,08,38,6.40
2012,01,19,08,39,4.80
2012,01,19,08,40,1.60
2012,01,19,08,41,3.20
2012,01,19,08,42,4.80
2012,01,19,08,44,1.60
2012,01,19,08,45,1.60
2012,01,19,08,46,3.20
2012,01,19,08,47,1.60
2012,01,19,08,48,1.60
2012,01,19,08,49,6.40
2012,01,19,08,50,3.20
2012,01,19,08,51,6.40
2012,01,19,08,52,8.10
2012,01,19,08,53,4.80
2012,01,19,08,54,6.40
2012,01,19,08,55,8.10
2012,01,19,08,56,3.20
2012,01,19,08,57,4.80
2012,01,19,08,58,4.80
2012,01,19,08,59,4.80
2012,01,19,09,00,9.60
2012,01,19,09,01,6.40
2012,01,19,09,02,3.20
2012,01,19,09,03,4.80
2012,01,19,09,04,3.20
2012,01,19,09,05,3.20
2012,01,19,09,06,4.80
2012,01,19,09,07,6.40
2012,01,19,09,08,6.40
2012,01,19,09,09,4.80
2012,01,19,09,10,8.10
2012,01,19,09,11,4.80
2012,01,19,09,12,6.40
2012,01,19,09,13,8.10
2012,01,19,09,14,8.10
2012,01,19,09,15,3.20
2012,01,19,09,16,9.60
2012,01,19,09,17,6.40
2012,01,19,09,18,8.10
2012,01,19,09,19,6.40
2012,01,19,09,20,6.40
2012,01,19,09,21,6.40
2012,01,19,09,22,4.80
2012,01,19,09,23,6.40
2012,01,19,09,24,4.80
2012,01,19,09,25,6.40
2012,01,19,09,26,8.10
2012,01,19,09,27,6.40
2012,01,19,09,28,6.40
2012,01,19,09,29,6.40
2012,01,19,09,30,6.40
2012,01,19,09,31,6.40
2012,01,19,09,32,8.10
2012,01,19,09,33,6.40
2012,01,19,09,34,6.40
2012,01,19,09,35,8.10
2012,01,19,09,36,6.40
2012,01,19,09,37,6.40
2012,01,19,09,38,4.80
2012,01,19,09,39,1.60
2012,01,19,09,40,1.60
2012,01,19,09,41,3.20
2012,01,19,09,42,3.20
2012,01,19,09,43,4.80
2012,01,19,09,44,8.10
2012,01,19,09,45,3.20
2012,01,19,09,46,3.20
2012,01,19,09,47,4.80
2012,01,19,09,48,4.80
2012,01,19,09,49,3.20
2012,01,19,09,50,4.80
2012,01,19,09,51,6.40
2012,01,19,09,52,6.40
2012,01,19,09,53,8.10
2012,01,19,09,54,6.40
2012,01,19,09,55,6.40
2012,01,19,09,56,4.80
2012,01,19,09,57,4.80
2012,01,19,09,58,1.60
2012,01,19,09,59,8.10
2012,01,19,10,00,6.40
2012,01,19,10,01,4.80
2012,01,19,10,02,6.40
2012,01,19,10,03,3.20
2012,01,19,10,04,3.20
2012,01,19,10,05,6.40
2012,01,19,10,06,3.20
2012,01,19,10,07,1.60
2012,01,19,10,08,3.20
2012,01,19,10,09,3.20
2012,01,19,10,10,1.60
2012,01,19,10,11,1.60
2012,01,19,10,12,1.60
2012,01,19,10,13,4.80
2012,01,19,10,14,3.20
2012,01,19,10,15,4.80
2012,01,19,10,16,8.10
2012,01,19,10,17,8.10
2012,01,19,10,18,9.60
2012,01,19,10,19,9.60
2012,01,19,10,20,8.10
2012,01,19,10,21,6.40
2012,01,19,10,22,6.40
2012,01,19,10,23,6.40
2012,01,19,10,24,6.40
2012,01,19,10,25,4.80
2012,01,19,10,26,3.20
2012,01,19,10,27,3.20
2012,01,19,10,28,6.40
2012,01,19,10,29,9.60
2012,01,19,10,30,8.10
2012,01,19,10,31,8.10
2012,01,19,10,32,1.60
2012,01,19,10,33,3.20
2012,01,19,10,34,8.10
2012,01,19,10,35,6.40
2012,01,19,10,36,6.40
2012,01,19,10,37,4.80
2012,01,19,10,38,3.20
2012,01,19,10,39,3.20
2012,01,19,10,40,6.40
2012,01,19,10,41,4.80
2012,01,19,10,42,3.20
2012,01,19,10,43,6.40
2012,01,19,10,44,4.80
2012,01,19,10,45,4.80
2012,01,19,10,46,4.80
2012,01,19,10,47,8.10
2012,01,19,10,48,4.80
2012,01,19,10,49,8.10
2012,01,19,10,50,4.80
2012,01,19,10,51,4.80
2012,01,19,10,52,3.20
2012,01,19,10,53,4.80
2012,01,19,10,54,3.20
2012,01,19,10,55,4.80
2012,01,19,10,56,4.80
2012,01,19,10,57,3.20
2012,01,19,10,58,3.20
2012,01,19,10,59,3.20
2012,01,19,11,00,1.60
2012,01,19,11,01,3.20
2012,01,19,11,02,3.20
2012,01,19,11,03,4.80
2012,01,19,11,04,1.60
2012,01,19,11,05,3.20
2012,01,19,11,06,1.60
2012,01,19,11,07,1.60
2012,01,19,11,08,8.10
2012,01,19,11,09,6.40
2012,01,19,11,10,3.20
2012,01,19,11,11,1.60
2012,01,19,11,12,1.60
2012,01,19,11,13,1.60
2012,01,19,11,14,1.60
2012,01,19,11,15,1.60
2012,01,19,11,17,1.60
2012,01,19,11,18,1.60
2012,01,19,11,20,6.40
2012,01,19,11,21,4.80
2012,01,19,11,22,3.20
2012,01,19,11,23,4.80
2012,01,19,11,24,3.20
2012,01,19,11,25,3.20
2012,01,19,11,26,3.20
2012,01,19,11,27,4.80
2012,01,19,11,28,3.20
2012,01,19,11,29,1.60
2012,01,19,11,31,1.60
2012,01,19,11,32,1.60
2012,01,19,11,33,1.60
2012,01,19,11,34,1.60
2012,01,19,11,38,1.60
2012,01,19,11,39,1.60
2012,01,19,11,41,1.60
2012,01,19,11,42,3.20
2012,01,19,11,43,3.20
2012,01,19,11,44,3.20
2012,01,19,11,45,3.20
2012,01,19,11,46,3.20
2012,01,19,11,47,1.60
2012,01,19,11,48,1.60
2012,01,19,11,49,1.60
2012,01,19,11,52,1.60
2012,01,19,11,53,3.20
2012,01,19,11,54,1.60
2012,01,19,11,55,1.60
2012,01,19,11,56,1.60
2012,01,19,11,57,3.20
2012,01,19,11,58,3.20
2012,01,19,11,59,4.80
2012,01,19,12,00,4.80
2012,01,19,12,01,3.20
2012,01,19,12,02,4.80
2012,01,19,12,03,4.80
2012,01,19,12,04,4.80
2012,01,19,12,05,4.80
2012,01,19,12,06,6.40
2012,01,19,12,07,8.10
2012,01,19,12,08,6.40
2012,01,19,12,09,6.40
2012,01,19,12,10,4.80
2012,01,19,12,11,4.80
2012,01,19,12,12,4.80
2012,01,19,12,13,4.80
2012,01,19,12,14,6.40
2012,01,19,12,15,4.80
2012,01,19,12,16,6.40
2012,01,19,12,17,6.40
2012,01,19,12,18,4.80
2012,01,19,12,19,6.40
2012,01,19,12,20,6.40
2012,01,19,12,21,4.80
2012,01,19,12,22,4.80
2012,01,19,12,23,6.40
2012,01,19,12,24,6.40
2012,01,19,12,25,8.10
2012,01,19,12,26,8.10
2012,01,19,12,27,8.10
2012,01,19,12,28,4.80
2012,01,19,12,29,8.10
2012,01,19,12,30,8.10
2012,01,19,12,31,9.60
2012,01,19,12,32,6.40
2012,01,19,12,33,6.40
2012,01,19,12,34,8.10
2012,01,19,12,35,6.40
2012,01,19,12,36,6.40
2012,01,19,12,37,3.20
2012,01,19,12,38,1.60
2012,01,19,12,39,4.80
2012,01,19,12,40,6.40
2012,01,19,12,41,4.80
2012,01,19,12,42,4.80
2012,01,19,12,43,4.80
2012,01,19,12,44,3.20
2012,01,19,12,45,6.40
2012,01,19,12,46,4.80
2012,01,19,12,47,4.80
2012,01,19,12,48,6.40
2012,01,19,12,49,3.20
2012,01,19,12,50,1.60
2012,01,19,12,51,4.80
2012,01,19,12,52,4.80
2012,01,19,12,53,4.80
2012,01,19,12,54,3.20
2012,01,19,12,55,4.80
2012,01,19,12,56,4.80
2012,01,19,12,57,4.80
2012,01,19,12,58,3.20
2012,01,19,12,59,4.80
2012,01,19,13,00,1.60
2012,01,19,13,01,1.60
2012,01,19,13,02,4.80
2012,01,19,13,03,4.80
2012,01,19,13,04,6.40
2012,01,19,13,05,4.80
2012,01,19,13,06,4.80
2012,01,19,13,07,4.80
2012,01,19,13,08,4.80
2012,01,19,13,09,3.20
2012,01,19,13,10,3.20
2012,01,19,13,11,3.20
2012,01,19,13,12,3.20
2012,01,19,13,13,4.80
2012,01,19,13,14,6.40
2012,01,19,13,15,4.80
2012,01,19,13,16,3.20
2012,01,19,13,17,4.80
2012,01,19,13,18,3.20
2012,01,19,13,19,4.80
2012,01,19,13,20,3.20
2012,01,19,13,21,4.80
2012,01,19,13,22,3.20
2012,01,19,13,23,6.40
2012,01,19,13,24,4.80
2012,01,19,13,25,6.40
2012,01,19,13,26,4.80
2012,01,19,13,27,4.80
2012,01,19,13,28,6.40
2012,01,19,13,29,8.10
2012,01,19,13,30,6.40
2012,01,19,13,31,8.10
2012,01,19,13,32,4.80
2012,01,19,13,33,6.40
2012,01,19,13,34,1.60
2012,01,19,13,35,1.60
2012,01,19,13,36,1.60
2012,01,19,13,37,1.60
2012,01,19,13,38,4.80
2012,01,19,13,39,4.80
2012,01,19,13,40,4.80
2012,01,19,13,41,1.60
2012,01,19,13,42,1.60
2012,01,19,13,43,1.60
2012,01,19,13,44,3.20
2012,01,19,13,45,3.20
2012,01,19,13,52,3.20
2012,01,19,13,53,4.80
2012,01,19,13,54,1.60
2012,01,19,13,55,1.60
2012,01,19,13,56,3.20
2012,01,19,13,57,1.60
2012,01,19,13,58,1.60
2012,01,19,14,00,1.60
2012,01,19,14,01,1.60
2012,01,19,14,04,1.60
2012,01,19,14,05,1.60
2012,01,19,14,06,1.60
2012,01,19,14,07,3.20
2012,01,19,14,08,3.20
2012,01,19,14,09,3.20
2012,01,19,14,10,1.60
2012,01,19,14,11,4.80
2012,01,19,14,12,4.80
2012,01,19,14,13,4.80
2012,01,19,14,14,3.20
2012,01,19,14,15,6.40
2012,01,19,14,16,4.80
2012,01,19,14,17,3.20
2012,01,19,14,18,3.20
2012,01,19,14,19,6.40
2012,01,19,14,20,6.40
2012,01,19,14,21,4.80
2012,01,19,14,22,9.60
2012,01,19,14,23,9.60
2012,01,19,14,24,6.40
2012,01,19,14,25,8.10
2012,01,19,14,26,6.40
2012,01,19,14,27,6.40
2012,01,19,14,28,4.80
2012,01,19,14,29,4.80
2012,01,19,14,30,9.60
2012,01,19,14,31,6.40
2012,01,19,14,32,3.20
2012,01,19,14,33,4.80
2012,01,19,14,34,6.40
2012,01,19,14,35,6.40
2012,01,19,14,36,4.80
2012,01,19,14,37,4.80
2012,01,19,14,38,4.80
2012,01,19,14,39,3.20
2012,01,19,14,40,1.60
2012,01,19,14,41,3.20
2012,01,19,14,42,3.20
2012,01,19,14,43,3.20
2012,01,19,14,44,3.20
2012,01,19,14,45,1.60
2012,01,19,14,46,3.20
2012,01,19,14,47,4.80
2012,01,19,14,48,3.20
2012,01,19,14,49,3.20
2012,01,19,14,50,1.60
2012,01,19,14,52,1.60
2012,01,19,14,53,1.60
2012,01,19,14,54,1.60
2012,01,19,14,57,3.20
2012,01,19,14,58,3.20
2012,01,19,14,59,3.20
2012,01,19,15,01,1.60
2012,01,19,15,02,1.60
2012,01,19,15,03,1.60
2012,01,19,15,04,1.60
2012,01,19,15,05,1.60
2012,01,19,15,07,3.20
2012,01,19,15,08,1.60
2012,01,19,15,09,3.20
2012,01,19,15,10,3.20
2012,01,19,15,11,3.20
2012,01,19,15,12,3.20
2012,01,19,15,13,3.20
2012,01,19,15,14,1.60
2012,01,19,15,15,3.20
2012,01,19,15,16,6.40
2012,01,19,15,17,3.20
2012,01,19,15,18,4.80
2012,01,19,15,19,3.20
2012,01,19,15,20,4.80
2012,01,19,15,21,3.20
2012,01,19,15,22,1.60
2012,01,19,15,23,3.20
2012,01,19,15,24,1.60
2012,01,19,15,26,1.60
2012,01,19,15,27,1.60
2012,01,19,15,28,1.60
2012,01,19,15,29,4.80
2012,01,19,15,30,4.80
2012,01,19,15,31,1.60
2012,01,19,15,33,1.60
2012,01,19,15,34,1.60
2012,01,19,15,35,1.60
2012,01,19,15,36,3.20
2012,01,19,15,37,3.20
2012,01,19,15,38,1.60
2012,01,19,15,39,3.20
2012,01,19,15,40,3.20
2012,01,19,15,41,4.80
2012,01,19,15,42,1.60
2012,01,19,15,43,3.20
2012,01,19,15,44,3.20
2012,01,19,15,45,1.60
2012,01,19,15,46,1.60
2012,01,19,15,47,3.20
2012,01,19,15,48,3.20
2012,01,19,15,52,1.60
2012,01,19,15,53,1.60
2012,01,19,15,54,3.20
2012,01,19,15,55,3.20
2012,01,19,15,56,3.20
2012,01,19,15,57,3.20
2012,01,19,15,59,1.60
2012,01,19,16,00,1.60
2012,01,19,16,01,1.60
2012,01,19,16,02,1.60
2012,01,19,16,03,1.60
2012,01,19,16,04,1.60
2012,01,19,16,05,3.20
2012,01,19,16,06,1.60
2012,01,19,16,07,3.20
2012,01,19,16,08,3.20
2012,01,19,16,09,4.80
2012,01,19,16,10,3.20
2012,01,19,16,11,3.20
2012,01,19,16,12,4.80
2012,01,19,16,13,3.20
2012,01,19,16,14,3.20
2012,01,19,16,15,3.20
2012,01,19,16,16,3.20
2012,01,19,16,17,1.60
2012,01,19,16,18,1.60
2012,01,19,16,20,1.60
2012,01,19,16,21,1.60
2012,01,19,16,22,3.20
2012,01,19,16,23,3.20
2012,01,19,16,24,1.60
2012,01,19,16,25,1.60
2012,01,19,16,26,1.60
2012,01,19,16,27,1.60
2012,01,19,16,28,1.60
2012,01,19,16,29,3.20
2012,01,19,16,30,6.40
2012,01,19,16,31,3.20
2012,01,19,16,32,6.40
2012,01,19,16,33,6.40
2012,01,19,16,34,6.40
2012,01,19,16,35,6.40
2012,01,19,16,36,3.20
2012,01,19,16,37,6.40
2012,01,19,16,38,3.20
2012,01,19,16,39,3.20
2012,01,19,16,40,1.60
2012,01,19,16,41,3.20
2012,01,19,16,42,3.20
2012,01,19,16,43,3.20
2012,01,19,16,44,6.40
2012,01,19,16,45,3.20
2012,01,19,16,46,6.40
2012,01,19,16,47,8.10
2012,01,19,16,48,8.10
2012,01,19,16,49,8.10
2012,01,19,16,50,6.40
2012,01,19,16,51,6.40
2012,01,19,16,52,6.40
2012,01,19,16,53,8.10
2012,01,19,16,54,8.10
2012,01,19,16,55,6.40
2012,01,19,16,56,8.10
2012,01,19,16,57,8.10
2012,01,19,16,58,6.40
2012,01,19,16,59,6.40
2012,01,19,17,00,6.40
2012,01,19,17,01,3.20
2012,01,19,17,02,3.20
2012,01,19,17,03,6.40
2012,01,19,17,04,3.20
2012,01,19,17,05,8.10
2012,01,19,17,06,4.80
2012,01,19,17,07,4.80
2012,01,19,17,08,3.20
2012,01,19,17,09,4.80
2012,01,19,17,10,6.40
2012,01,19,17,11,4.80
2012,01,19,17,12,4.80
2012,01,19,17,13,4.80
2012,01,19,17,14,4.80
2012,01,19,17,15,4.80
2012,01,19,17,16,8.10
2012,01,19,17,17,9.60
2012,01,19,17,18,8.10
2012,01,19,17,19,6.40
2012,01,19,17,20,6.40
2012,01,19,17,21,1.60
2012,01,19,17,22,6.40
2012,01,19,17,23,3.20
2012,01,19,17,24,3.20
2012,01,19,17,25,3.20
2012,01,19,17,26,8.10
2012,01,19,17,27,8.10
2012,01,19,17,28,3.20
2012,01,19,17,29,3.20
2012,01,19,17,30,3.20
2012,01,19,17,31,1.60
2012,01,19,17,32,3.20
2012,01,19,17,33,6.40
2012,01,19,17,34,6.40
2012,01,19,17,35,8.10
2012,01,19,17,36,8.10
2012,01,19,17,37,8.10
2012,01,19,17,38,8.10
2012,01,19,17,39,6.40
2012,01,19,17,40,3.20
2012,01,19,17,41,3.20
2012,01,19,17,42,6.40
2012,01,19,17,43,3.20
2012,01,19,17,44,9.60
2012,01,19,17,45,11.30
2012,01,19,17,46,6.40
2012,01,19,17,47,8.10
2012,01,19,17,48,3.20
2012,01,19,17,49,8.10
2012,01,19,17,50,8.10
2012,01,19,17,51,8.10
2012,01,19,17,52,6.40
2012,01,19,17,53,9.60
2012,01,19,17,54,8.10
2012,01,19,17,55,3.20
2012,01,19,17,56,8.10
2012,01,19,17,57,8.10
2012,01,19,17,58,8.10
2012,01,19,17,59,8.10
2012,01,19,18,00,9.60
2012,01,19,18,01,8.10
2012,01,19,18,02,9.60
2012,01,19,18,03,9.60
2012,01,19,18,04,8.10
2012,01,19,18,05,9.60
2012,01,19,18,06,8.10
2012,01,19,18,07,9.60
2012,01,19,18,08,4.80
2012,01,19,18,09,4.80
2012,01,19,18,10,11.30
2012,01,19,18,11,6.40
2012,01,19,18,12,3.20
2012,01,19,18,13,3.20
2012,01,19,18,14,6.40
2012,01,19,18,15,9.60
2012,01,19,18,16,8.10
2012,01,19,18,17,9.60
2012,01,19,18,18,9.60
2012,01,19,18,19,6.40
2012,01,19,18,20,8.10
2012,01,19,18,21,6.40
2012,01,19,18,22,3.20
2012,01,19,18,23,8.10
2012,01,19,18,24,6.40
2012,01,19,18,25,9.60
2012,01,19,18,26,9.60
2012,01,19,18,27,9.60
2012,01,19,18,28,8.10
2012,01,19,18,29,6.40
2012,01,19,18,30,11.30
2012,01,19,18,31,8.10
2012,01,19,18,32,6.40
2012,01,19,18,33,8.10
2012,01,19,18,34,8.10
2012,01,19,18,35,6.40
2012,01,19,18,36,11.30
2012,01,19,18,37,8.10
2012,01,19,18,38,9.60
2012,01,19,18,39,8.10
2012,01,19,18,40,8.10
2012,01,19,18,41,11.30
2012,01,19,18,42,11.30
2012,01,19,18,43,11.30
2012,01,19,18,44,6.40
2012,01,19,18,45,9.60
2012,01,19,18,46,11.30
2012,01,19,18,47,6.40
2012,01,19,18,48,6.40
2012,01,19,18,49,9.60
2012,01,19,18,50,9.60
2012,01,19,18,51,8.10
2012,01,19,18,52,6.40
2012,01,19,18,53,9.60
2012,01,19,18,54,11.30
2012,01,19,18,55,11.30
2012,01,19,18,56,9.60
2012,01,19,18,57,4.80
2012,01,19,18,58,6.40
2012,01,19,18,59,6.40
2012,01,19,19,00,9.60
2012,01,19,19,01,8.10
2012,01,19,19,02,8.10
2012,01,19,19,03,9.60
2012,01,19,19,04,9.60
2012,01,19,19,05,11.30
2012,01,19,19,06,9.60
2012,01,19,19,07,9.60
2012,01,19,19,08,11.30
2012,01,19,19,09,11.30
2012,01,19,19,10,8.10
2012,01,19,19,11,12.90
2012,01,19,19,12,6.40
2012,01,19,19,13,11.30
2012,01,19,19,14,6.40
2012,01,19,19,15,3.20
2012,01,19,19,16,6.40
2012,01,19,19,17,6.40
2012,01,19,19,18,6.40
2012,01,19,19,19,6.40
2012,01,19,19,20,3.20
2012,01,19,19,21,8.10
2012,01,19,19,22,8.10
2012,01,19,19,23,8.10
2012,01,19,19,24,9.60
2012,01,19,19,25,9.60
2012,01,19,19,26,8.10
2012,01,19,19,27,11.30
2012,01,19,19,28,8.10